Weather in Goygol

Azerbaijan     40°35′00″N   46°19′24″E
temp.,
°C
wind,
m/s
gust,
m/s
humid.,
%
clouds,
%
prec.,
mm/h
press.,
hPa
HPBL,
m
25 july, sun
sun2501:00+18ese118256 0.1 101314
04:00+16nne008644 0.1 101316
07:00+18n018133 0.0 101491
10:00+21nne327189 0.1 1014906
13:00+23n225960 0.1 10141227
16:00+26nne324891 0.2 10131676
19:00+24ne235367 0.0 1014343
22:00+20ssw33670 0.0 101534
26 july, mon
mon2601:00+18s22702 0.0 101616
04:00+17s21740 0.0 101613
07:00+19s00670 0.0 101760
10:00+23ne44572 0.0 10161016
13:00+28ne65381 0.0 10141710
16:00+29ne54370 0.0 10121646
19:00+27ne34430 0.1 1012587
22:00+22ssw43585 0.1 101440
27 july, tue
tue2701:00+21ssw44585 0.0 101354
04:00+19s22654 0.1 101314
07:00+20ssw11650 0.3 101482
10:00+23nne43600 0.4 1013858
13:00+27ne554611 0.1 10111414
16:00+28ne66360 0.9 10081447
19:00+24nw245589 0.9 1010390
22:00+19e228698 2.3 101385
28 july, wed
wed2801:00+17ne119799 3.2 1013186
04:00+16nw019599 5.8 1013168
07:00+16nnw1192100 2.1 1014104
10:00+16nne229296 3.4 1014317
13:00+16ne3397100 2.2 1014265
16:00+15nnw1196100 4.3 1014242
19:00+17n118247 0.6 1014245
22:00+15wnw119464 1.3 101671
29 july, thu
thu2901:00+15nne1199100 0.7 1016120
04:00+15n119998 1.4 1016116
07:00+14ne119799 0.6 1016120
10:00+14ne339597 1.1 1017300
13:00+17nne227471 0.3 1017716
16:00+20nne335140 0.3 10151383
19:00+20nne235410 0.0 1014412
22:00+15ssw33651 0.0 101638